Location: Banff
(51.1670°N, 115.5670°W)
Time: 14:36:51
(UTC-06:00)

Amateur Radio Satellites - All Passes

Search period start: 01 October 2016 14:06
Search period end: 02 October 2016 14:06
Location: Banff, 51.1670°N, 115.5670°W

Satellite Date Start Highest point End Downlink Frequencies (MHz)
Time Altitude Azimuth
Gurwin Techsat 1B 01 Oct 14:08:30 14:13:37 51° 67° (ENE) 14:18:47 435.225
Oscar 19 01 Oct 14:17:17 14:22:29 77° 256° (WSW) 14:27:43 437.125/150
50 SAT 01 Oct 14:18:14 14:21:49 50° 289° (WNW) 14:25:22 437.505
PCSat 01 Oct 14:20:58 14:25:50 35° 246° (WSW) 14:30:42 145.827
DX 1 01 Oct 14:27:53 14:32:15 75° 287° (WNW) 14:36:35 434.975-435.025
TISAT 1 01 Oct 14:34:43 14:38:22 29° 95° (E) 14:42:01 437.305
CUBEBUG 1 01 Oct 14:43:53 14:47:38 29° 296° (WNW) 14:51:21 437.445
O/OREOS (USA 219) 01 Oct 14:48:34 14:50:34 13° 33° (NNE) 14:52:34 437.305
VELOX 1 01 Oct 14:50:18 14:54:15 33° 296° (WNW) 14:58:10 145.980
YUBILEINY 01 Oct 14:50:59 14:59:46 88° 79° (E) 15:08:29 435.215
Cosmos 2491 01 Oct 14:54:35 15:02:42 44° 86° (E) 15:10:52 435.465 / 435.565
AUBIESAT-1 01 Oct 14:57:30 15:00:46 61° 294° (WNW) 15:04:04 437.475
SO-50 01 Oct 15:01:47 15:05:45 26° 117° (ESE) 15:09:43 436.795
Cosmos 2504 01 Oct 15:03:48 15:11:00 50° 71° (ENE) 15:18:37 435.465 / 435.565
SPROUT 01 Oct 15:04:59 15:08:53 35° 294° (WNW) 15:12:46 437.525
ESTCUBE 1 01 Oct 15:09:47 15:12:19 15° 305° (NW) 15:14:50 437.505/2401.250
JAS-2 01 Oct 15:10:38 15:12:50 11° 286° (WNW) 15:15:06 435.910
ITUPSAT 1 01 Oct 15:17:00 15:20:24 19° 90° (E) 15:23:46 437.325
ITAMSAT 1 01 Oct 15:19:28 15:24:34 63° 69° (ENE) 15:29:43 435.822/435.867
SWISSCUBE 01 Oct 15:27:23 15:31:23 25° 93° (E) 15:35:20 437.505
UKube-1 01 Oct 15:27:43 15:31:24 28° 297° (WNW) 15:35:03 .
M-CUBED/EXP-1 PRIME 01 Oct 15:39:19 15:41:42 19° 304° (WNW) 15:44:04 437.505
BEESAT 01 Oct 15:39:45 15:43:58 29° 95° (E) 15:48:08 436.000
AIST 1 01 Oct 15:41:25 15:44:40 20° 65° (ENE) 15:47:53
AISAT 01 Oct 15:45:01 15:46:52 12° 307° (NW) 15:48:41 437.250
AO-7 01 Oct 15:46:50 15:55:06 74° 65° (ENE) 16:03:24 29.400- 29.500
Gurwin Techsat 1B 01 Oct 15:49:16 15:53:50 29° 267° (W) 15:58:26 435.225
Oscar 19 01 Oct 16:00:26 16:02:42 13° 275° (W) 16:04:58 437.125/150
DX 1 01 Oct 16:05:55 16:07:42 12° 307° (NW) 16:09:29 434.975-435.025
TISAT 1 01 Oct 16:10:16 16:14:04 34° 294° (WNW) 16:17:51 437.305
O/OREOS (USA 219) 01 Oct 16:26:37 16:31:07 50° 56° (NE) 16:35:36 437.305
KKS-1 01 Oct 16:26:42 16:27:26 10° 85° (E) 16:28:09 437.445
MOZHAYETS 4 01 Oct 16:29:34 16:32:55 19° 90° (E) 16:36:15
SO-50 01 Oct 16:41:10 16:45:57 63° 316° (NW) 16:50:40 436.795
HORYU 2 01 Oct 16:47:46 16:51:23 25° 61° (ENE) 16:55:00 437.375
YUBILEINY 01 Oct 16:48:55 16:55:28 25° 283° (WNW) 17:02:01 435.215
Cosmos 2491 01 Oct 16:50:49 16:59:24 54° 289° (WNW) 17:08:06 435.465 / 435.565
ITUPSAT 1 01 Oct 16:53:54 16:58:43 68° 289° (WNW) 17:03:30 437.325
BRITE-PL 01 Oct 16:56:45 17:01:10 25° 60° (ENE) 17:05:26 437.365/2234.400
Cosmos 2504 01 Oct 16:57:26 17:04:17 42° 272° (W) 17:11:32 435.465 / 435.565
ITAMSAT 1 01 Oct 17:00:26 17:04:28 23° 269° (W) 17:08:32 435.822/435.867
SWISSCUBE 01 Oct 17:04:46 17:09:26 50° 292° (WNW) 17:14:03 437.505
BEESAT 01 Oct 17:17:21 17:21:53 43° 294° (WNW) 17:26:25 436.000
AIST 1 01 Oct 17:18:25 17:22:35 50° 266° (W) 17:26:42
GONETS M04 01 Oct 17:18:44 17:21:58 12° 36° (NE) 17:25:12
NOAA 15 01 Oct 17:20:36 17:24:32 21° 55° (NE) 17:28:27 137.62
NOAA 18 01 Oct 17:28:00 17:31:41 19° 52° (NE) 17:35:22 137.9125
AO-7 01 Oct 17:41:24 17:48:36 32° 266° (W) 17:55:51 29.400- 29.500
CUTE-I 01 Oct 17:50:05 17:54:34 29° 60° (ENE) 17:59:04 437.470
Cubesat XI-IV 01 Oct 17:51:18 17:55:48 29° 60° (ENE) 18:00:20 437.490
KKS-1 01 Oct 18:00:19 18:04:47 77° 104° (ESE) 18:09:12 437.445
CUBESAT XI-V 01 Oct 18:00:32 18:04:14 22° 91° (E) 18:07:54 437.345
GOMX 1 01 Oct 18:02:02 18:06:44 36° 66° (ENE) 18:11:12 467.674
Cosmos 2499 01 Oct 18:02:36 18:06:28 14° 48° (NE) 18:10:27 435.465 / 435.565
DOVE 4 01 Oct 18:03:35 18:06:45 18° 59° (ENE) 18:09:50 437.250
MOZHAYETS 4 01 Oct 18:05:54 18:10:30 63° 289° (WNW) 18:15:06
O/OREOS (USA 219) 01 Oct 18:06:31 18:10:17 25° 256° (WSW) 18:14:00 437.305
RS-15 01 Oct 18:07:01 18:10:27 12° 88° (E) 18:13:54 29.354- 29.394
HO-68 01 Oct 18:12:09 18:16:40 18° 42° (NE) 18:21:11 435.675
STARS 01 Oct 18:22:11 18:26:33 65° 103° (ESE) 18:30:54 437.465
HORYU 2 01 Oct 18:23:29 18:27:44 46° 260° (W) 18:32:01 437.375
SO-50 01 Oct 18:23:35 18:27:17 22° 338° (NNW) 18:30:57 436.795
ITUPSAT 1 01 Oct 18:33:32 18:35:42 13° 309° (NW) 18:37:54 437.325
BRITE-PL 01 Oct 18:33:34 18:39:13 70° 258° (WSW) 18:44:38 437.365/2234.400
LilacSat-2 01 Oct 18:35:01 18:38:39 49° 71° (ENE) 18:42:20 437.200
CUSAT 1 01 Oct 18:39:15 18:45:10 30° 82° (E) 18:51:42 437.405
CINEMA 3 01 Oct 18:45:51 18:47:35 12° 56° (NE) 18:49:19 145.822/145.860
Cosmos 2491 01 Oct 18:53:39 18:58:48 16° 316° (NW) 19:03:59 435.465 / 435.565
NOAA 15 01 Oct 18:58:26 19:03:45 79° 255° (WSW) 19:09:07 137.62
NOAA 18 01 Oct 19:06:10 19:11:38 86° 72° (ENE) 19:17:08 137.9125
DANDE 01 Oct 19:10:29 19:14:53 20° 76° (ENE) 19:19:57 436.750
GONETS M04 01 Oct 19:13:50 19:22:04 40° 65° (ENE) 19:30:11
SEEDS 01 Oct 19:18:05 19:20:09 13° 56° (NE) 19:22:13 437.485
CUTE 1.7 + AOD 2 01 Oct 19:23:31 19:26:34 20° 60° (ENE) 19:29:39 437.475
CANX-2 01 Oct 19:25:20 19:28:39 22° 62° (ENE) 19:32:00 2200.000
CUTE-I 01 Oct 19:29:09 19:34:21 55° 259° (W) 19:39:36 437.470
AAUSAT CUBESAT 2 01 Oct 19:30:10 19:30:17 10° 53° (NE) 19:30:24 437.432
Cubesat XI-IV 01 Oct 19:30:26 19:35:38 54° 259° (W) 19:40:52 437.490
CUBESAT XI-V 01 Oct 19:37:20 19:41:56 54° 291° (WNW) 19:46:29 437.345
KKS-1 01 Oct 19:38:00 19:40:50 17° 303° (WNW) 19:43:39 437.445
DOVE 4 01 Oct 19:39:11 19:44:02 76° 257° (WSW) 19:48:36 437.250
GOMX 1 01 Oct 19:39:52 19:44:48 39° 263° (W) 19:49:28 467.674
MOZHAYETS 4 01 Oct 19:45:16 19:46:47 11° 308° (NW) 19:48:18
Cosmos 2499 01 Oct 19:54:09 20:01:33 54° 73° (ENE) 20:09:28 435.465 / 435.565
HO-68 01 Oct 19:56:04 20:03:05 61° 65° (ENE) 20:10:07 435.675
STARS 01 Oct 19:59:26 20:02:29 19° 302° (WNW) 20:05:32 437.465
SO-50 01 Oct 20:06:28 20:09:24 16° 3° (N) 20:12:17 436.795
RS-15 01 Oct 20:08:29 20:19:28 50° 113° (ESE) 20:30:55 29.354- 29.394
LilacSat-2 01 Oct 20:10:45 20:13:15 17° 270° (W) 20:15:47 437.200
COMPASS 1 01 Oct 20:14:47 20:18:26 29° 65° (ENE) 20:22:06 437.405
BRITE-PL 01 Oct 20:16:07 20:18:34 13° 277° (W) 20:20:58 437.365/2234.400
CUSAT 1 01 Oct 20:19:24 20:26:26 76° 285° (WNW) 20:34:31 437.405
CINEMA 3 01 Oct 20:19:45 20:24:06 81° 75° (ENE) 20:28:20 145.822/145.860
NOAA 15 01 Oct 20:41:52 20:44:25 13° 275° (W) 20:46:59 137.62
FUNcube-1 01 Oct 20:42:40 20:45:40 20° 60° (ENE) 20:48:41 145.935
AO-85 01 Oct 20:42:40 20:46:51 26° 117° (ESE) 20:50:50 145.980
STRAND 1 01 Oct 20:47:10 20:52:08 45° 99° (E) 20:57:04 437.568
NOAA 18 01 Oct 20:49:32 20:53:02 17° 272° (W) 20:56:33 137.9125
ISS 01 Oct 20:50:07 20:53:08 35° 152° (SSE) 20:56:09 145.825
DANDE 01 Oct 20:50:17 20:56:20 87° 103° (ESE) 21:04:06 436.750
SEEDS 01 Oct 20:50:58 20:55:12 87° 70° (ENE) 20:59:29 437.485
CUTE 1.7 + AOD 2 01 Oct 20:57:50 21:02:02 59° 259° (W) 21:06:17 437.475
CUBEBUG 2 01 Oct 20:57:54 21:01:58 58° 72° (ENE) 21:06:04 437.445
CANX-2 01 Oct 21:00:06 21:04:14 49° 261° (W) 21:08:26 2200.000
AAUSAT CUBESAT 2 01 Oct 21:00:48 21:04:56 63° 73° (ENE) 21:09:07 437.432
UWE-3 01 Oct 21:06:43 21:10:43 49° 70° (ENE) 21:14:45 435.000/436.395/437.385
GONETS M04 01 Oct 21:10:44 21:19:21 60° 269° (W) 21:27:52
HUMSAT D 01 Oct 21:11:30 21:12:06 10° 53° (NE) 21:12:42 437.325/437.525
Oscar 11 01 Oct 21:15:31 21:19:33 40° 68° (ENE) 21:23:38 145.826/435.025
CUBESAT XI-V 01 Oct 21:17:58 21:18:18 10° 310° (NW) 21:18:39 437.345
DOVE 4 01 Oct 21:21:12 21:22:26 11° 275° (W) 21:23:40 437.250
ZACube-1 01 Oct 21:26:00 21:30:00 50° 70° (ENE) 21:34:04 437.345
DELFI C3 01 Oct 21:43:28 21:47:03 32° 66° (ENE) 21:50:40 145.870
HO-68 01 Oct 21:44:47 21:51:13 35° 266° (W) 21:57:40 435.675
SO-50 01 Oct 21:47:24 21:51:22 26° 27° (NNE) 21:55:15 436.795
Cosmos 2499 01 Oct 21:47:37 21:54:30 39° 273° (W) 22:01:49 435.465 / 435.565
COMPASS 1 01 Oct 21:50:03 21:53:55 35° 264° (W) 21:57:49 437.405
CINEMA 3 01 Oct 21:59:52 22:01:49 13° 273° (W) 22:03:45 145.822/145.860
CUSAT 1 01 Oct 22:04:13 22:09:56 23° 309° (NW) 22:16:03 437.405
PRISM 01 Oct 22:15:39 22:19:26 33° 97° (E) 22:23:11 437.425
FUNcube-1 01 Oct 22:17:32 22:21:34 54° 260° (W) 22:25:42 145.935
RS-15 01 Oct 22:19:44 22:31:35 71° 320° (NW) 22:44:00 29.354- 29.394
AO-85 01 Oct 22:22:00 22:27:03 66° 315° (NW) 22:31:44 145.980
ISS 01 Oct 22:26:11 22:29:27 88° 358° (N) 22:32:45 145.825
STRAND 1 01 Oct 22:26:38 22:31:11 32° 298° (WNW) 22:35:43 437.568
SEEDS 01 Oct 22:29:54 22:31:33 12° 274° (W) 22:33:12 437.485
DANDE 01 Oct 22:35:00 22:40:20 26° 307° (NW) 22:46:38 436.750
CUBEBUG 1 01 Oct 22:36:14 22:36:48 10° 52° (NE) 22:37:22 437.445
CUBEBUG 2 01 Oct 22:36:18 22:39:00 17° 270° (W) 22:41:44 437.445
AAUSAT CUBESAT 2 01 Oct 22:38:13 22:40:50 16° 271° (W) 22:43:30 437.432
HUMSAT D 01 Oct 22:42:50 22:46:55 67° 72° (ENE) 22:51:03 437.325/437.525
VELOX 1 01 Oct 22:44:23 22:44:25 10° 51° (NE) 22:44:27 145.980
UWE-3 01 Oct 22:44:26 22:47:29 20° 269° (W) 22:50:34 435.000/436.395/437.385
Oscar 11 01 Oct 22:52:12 22:55:49 26° 267° (W) 22:59:31 145.826/435.025
ESTCUBE 1 01 Oct 23:00:18 23:03:55 24° 61° (ENE) 23:07:32 437.505/2401.250
ANTELSAT 01 Oct 23:02:37 23:05:47 19° 91° (E) 23:09:00 437.575/2403.000
ZACube-1 01 Oct 23:03:35 23:06:37 19° 269° (W) 23:09:40 437.345
GONETS M04 01 Oct 23:10:02 23:14:11 14° 292° (WNW) 23:18:20
DELFI C3 01 Oct 23:18:23 23:21:53 29° 265° (W) 23:25:28 145.870
UKube-1 01 Oct 23:18:25 23:19:32 11° 52° (NE) 23:20:40 .
TIGRISAT 01 Oct 23:21:28 23:25:12 26° 94° (E) 23:28:59 435.000
M-CUBED/EXP-1 PRIME 01 Oct 23:22:05 23:24:36 17° 55° (NE) 23:27:00 437.505
50 SAT 01 Oct 23:27:21 23:29:45 17° 61° (ENE) 23:32:09 437.505
SO-50 01 Oct 23:27:45 23:32:24 84° 230° (SW) 23:36:54 436.795
AISAT 01 Oct 23:33:18 23:36:59 26° 62° (ENE) 23:40:40 437.250
PRISM 01 Oct 23:51:05 23:54:42 29° 296° (WNW) 23:58:15 437.425
DX 1 01 Oct 23:52:57 23:56:32 25° 62° (ENE) 00:00:08 434.975-435.025
ISS 02 Oct 00:02:42 00:05:59 88° 204° (SSW) 00:09:17 145.825
UNISAT 6 02 Oct 00:03:13 00:07:38 67° 102° (ESE) 00:12:08 437.425
AO-85 02 Oct 00:04:32 00:08:17 22° 336° (NNW) 00:11:50 145.980
CUBEBUG 1 02 Oct 00:07:52 00:12:12 60° 71° (ENE) 00:16:33 437.445
AUBIESAT-1 02 Oct 00:13:46 00:17:21 41° 64° (ENE) 00:20:44 437.475
DUCHIFAT 1 02 Oct 00:15:23 00:17:18 13° 87° (E) 00:19:14 145.980
VELOX 1 02 Oct 00:15:37 00:19:59 57° 70° (ENE) 00:24:21 145.980
HUMSAT D 02 Oct 00:20:37 00:23:01 15° 272° (W) 00:25:25 437.325/437.525
QB50P1 02 Oct 00:21:59 00:24:46 17° 90° (E) 00:27:32 145.935-145.965
JAS-2 02 Oct 00:23:13 00:29:37 26° 86° (E) 00:35:44 435.910
SPROUT 02 Oct 00:27:17 00:31:18 42° 68° (ENE) 00:35:20 437.525
RS-15 02 Oct 00:35:04 00:46:31 44° 352° (N) 00:58:16 29.354- 29.394
POPSAT HIP 1 02 Oct 00:35:33 00:38:54 22° 93° (E) 00:42:13 437.405
ESTCUBE 1 02 Oct 00:36:00 00:40:26 53° 260° (W) 00:44:55 437.505/2401.250
ANTELSAT 02 Oct 00:38:30 00:42:52 60° 289° (WNW) 00:47:19 437.575/2403.000
BEESAT 2 02 Oct 00:47:26 00:49:48 15° 113° (ESE) 00:52:11 435.950
NANOSAT C BR1 02 Oct 00:48:25 00:52:04 28° 95° (E) 00:55:42 145.865
UKube-1 02 Oct 00:50:28 00:54:45 65° 71° (ENE) 00:59:04 .
M-CUBED/EXP-1 PRIME 02 Oct 00:55:00 00:58:52 58° 252° (WSW) 01:02:27 437.505
Cosmos 2491 02 Oct 00:57:45 01:05:23 31° 59° (ENE) 01:12:55 435.465 / 435.565
TIGRISAT 02 Oct 00:57:53 01:02:03 42° 292° (WNW) 01:06:18 435.000
50 SAT 02 Oct 00:59:18 01:02:53 52° 259° (W) 01:06:30 437.505
SWISSCUBE 02 Oct 01:06:08 01:06:22 10° 48° (NE) 01:06:35 437.505
AISAT 02 Oct 01:09:00 01:13:16 45° 261° (W) 01:17:32 437.250
SO-50 02 Oct 01:09:41 01:12:09 14° 250° (WSW) 01:14:34 436.795
QB50P2 02 Oct 01:16:01 01:20:12 58° 101° (E) 01:24:23 145.880/145.840
BEESAT 02 Oct 01:17:09 01:18:42 11° 50° (NE) 01:20:14 436.000
BEESAT 3 02 Oct 01:18:05 01:21:53 51° 125° (SE) 01:25:44 437.485
POLYITAN 1 02 Oct 01:18:10 01:22:21 58° 101° (E) 01:26:32 437.675
DX 1 02 Oct 01:28:19 01:32:31 45° 261° (W) 01:36:45 434.975-435.025
TISAT 1 02 Oct 01:30:57 01:34:53 42° 68° (ENE) 01:38:51 437.305
BUGSAT 1 02 Oct 01:32:51 01:36:27 31° 96° (E) 01:40:03 437.445
ISS 02 Oct 01:39:19 01:42:17 31° 210° (SSW) 01:45:14 145.825
UNISAT 6 02 Oct 01:40:51 01:43:57 19° 301° (WNW) 01:47:05 437.425
CUBEBUG 1 02 Oct 01:45:47 01:48:52 19° 270° (W) 01:51:59 437.445
AO-85 02 Oct 01:47:45 01:50:19 14° 0° (N) 01:52:47 145.980
AUBIESAT-1 02 Oct 01:49:05 01:51:58 20° 259° (W) 01:54:43 437.475
DUCHIFAT 1 02 Oct 01:49:22 01:53:35 81° 285° (WNW) 01:57:47 145.980
VELOX 1 02 Oct 01:53:33 01:56:48 20° 269° (W) 02:00:04 145.980
QB50P1 02 Oct 01:56:46 02:00:56 61° 289° (WNW) 02:05:06 145.935-145.965
SPROUT 02 Oct 02:03:55 02:07:25 24° 267° (W) 02:10:55 437.525
YUBILEINY 02 Oct 02:04:41 02:10:55 22° 75° (ENE) 02:17:06 435.215
JAS-2 02 Oct 02:07:34 02:15:31 85° 287° (WNW) 02:23:03 435.910
POPSAT HIP 1 02 Oct 02:10:52 02:14:54 45° 291° (WNW) 02:18:56 437.405
ANTELSAT 02 Oct 02:18:04 02:18:44 10° 308° (NW) 02:19:25 437.575/2403.000
Gurwin Techsat 1B 02 Oct 02:20:58 02:23:28 13° 85° (E) 02:25:58 435.225
BEESAT 2 02 Oct 02:23:08 02:27:05 78° 311° (NW) 02:31:08 435.950
NANOSAT C BR1 02 Oct 02:24:01 02:27:52 36° 293° (WNW) 02:31:43 145.865
Oscar 19 02 Oct 02:24:01 02:28:18 26° 92° (E) 02:32:33 437.125/150
ITUPSAT 1 02 Oct 02:28:18 02:32:42 38° 65° (ENE) 02:37:08 437.325
UKube-1 02 Oct 02:28:25 02:31:14 17° 270° (W) 02:34:04 .
SWISSCUBE 02 Oct 02:38:30 02:43:06 51° 68° (ENE) 02:47:46 437.505
RS-15 02 Oct 02:50:15 03:02:15 52° 25° (NNE) 03:14:14 29.354- 29.394
BEESAT 02 Oct 02:50:52 02:55:32 59° 70° (ENE) 03:00:15 436.000
QB50P2 02 Oct 02:52:36 02:55:39 20° 300° (WNW) 02:58:42 145.880/145.840
Cosmos 2491 02 Oct 02:54:24 03:03:18 81° 263° (W) 03:12:06 435.465 / 435.565
POLYITAN 1 02 Oct 02:54:45 02:57:49 20° 300° (WNW) 03:00:51 437.675
BEESAT 3 02 Oct 02:56:16 02:59:45 29° 326° (NW) 03:03:15 437.485
TISAT 1 02 Oct 03:07:20 03:10:43 23° 267° (W) 03:14:07 437.305
BUGSAT 1 02 Oct 03:08:16 03:11:49 30° 295° (WNW) 03:15:22 437.445
DUCHIFAT 1 02 Oct 03:26:52 03:28:35 12° 305° (NW) 03:30:19 145.980
PCSat 02 Oct 03:26:55 03:29:39 14° 104° (ESE) 03:32:23 145.827
CUSAT 1 02 Oct 03:27:44 03:28:59 10° 33° (NNE) 03:30:13 437.405
KKS-1 02 Oct 03:28:11 03:31:25 20° 59° (ENE) 03:34:40 437.445
ITAMSAT 1 02 Oct 03:28:20 03:31:14 15° 87° (E) 03:34:08 435.822/435.867
AO-85 02 Oct 03:28:47 03:32:20 23° 25° (NNE) 03:35:39 145.980
MOZHAYETS 4 02 Oct 03:36:05 03:40:09 32° 64° (ENE) 03:44:16
AO-7 02 Oct 03:44:12 03:48:58 16° 83° (E) 03:53:43 29.400- 29.500
AIST 2 02 Oct 03:48:24 03:52:13 38° 121° (ESE) 03:56:05 435.215
STARS 02 Oct 03:49:15 03:52:03 17° 57° (ENE) 03:54:53 437.465
Cosmos 2504 02 Oct 03:49:41 03:55:56 33° 84° (E) 04:02:08 435.465 / 435.565
JAS-2 02 Oct 03:53:19 03:59:31 27° 309° (NW) 04:05:35 435.910
YUBILEINY 02 Oct 03:57:38 04:06:26 84° 97° (E) 04:15:13 435.215
Gurwin Techsat 1B 02 Oct 03:58:58 04:04:20 78° 104° (ESE) 04:09:39 435.225
DANDE 02 Oct 04:00:12 04:01:49 11° 32° (NNE) 04:03:26 436.750
BEESAT 2 02 Oct 04:02:33 04:05:32 20° 334° (NNW) 04:08:33 435.950
Oscar 19 02 Oct 04:02:55 04:07:57 54° 292° (WNW) 04:12:56 437.125/150
ITUPSAT 1 02 Oct 04:06:17 04:10:35 33° 264° (W) 04:14:56 437.325
SWISSCUBE 02 Oct 04:17:18 04:21:11 24° 267° (W) 04:25:07 437.505
BEESAT 02 Oct 04:30:07 04:33:43 21° 269° (W) 04:37:21 436.000
BEESAT 3 02 Oct 04:36:46 04:38:37 13° 349° (NNW) 04:40:27 437.485
Cosmos 2491 02 Oct 04:52:40 04:58:44 21° 286° (WNW) 05:04:47 435.465 / 435.565
KKS-1 02 Oct 05:03:11 05:07:36 62° 258° (WSW) 05:12:02 437.445
RS-15 02 Oct 05:03:34 05:15:58 81° 234° (SW) 05:28:10 29.354- 29.394
ITAMSAT 1 02 Oct 05:06:14 05:11:29 87° 102° (ESE) 05:16:44 435.822/435.867
PCSat 02 Oct 05:06:44 05:12:08 74° 123° (ESE) 05:17:35 145.827
CUSAT 1 02 Oct 05:07:05 05:13:55 32° 58° (ENE) 05:19:50 437.405
CUBESAT XI-V 02 Oct 05:08:23 05:12:45 39° 66° (ENE) 05:17:08 437.345
AO-85 02 Oct 05:09:04 05:13:23 87° 44° (NE) 05:17:23 145.980
MOZHAYETS 4 02 Oct 05:13:02 05:17:17 36° 264° (W) 05:21:34
STARS 02 Oct 05:23:32 05:27:55 75° 257° (WSW) 05:32:18 437.465
AIST 2 02 Oct 05:26:52 05:30:43 38° 322° (NW) 05:34:40 435.215
AO-7 02 Oct 05:35:08 05:43:26 67° 106° (ESE) 05:51:40 29.400- 29.500
Gurwin Techsat 1B 02 Oct 05:39:49 05:43:44 21° 304° (NW) 05:47:40 435.225
DANDE 02 Oct 05:40:27 05:47:42 31° 57° (ENE) 05:54:36 436.750
Cosmos 2504 02 Oct 05:41:49 05:48:57 58° 287° (WNW) 05:56:02 435.465 / 435.565
BEESAT 2 02 Oct 05:43:19 05:44:49 12° 358° (N) 05:46:20 435.950
Oscar 19 02 Oct 05:44:32 05:46:12 12° 312° (NW) 05:47:52 437.125/150
AIST 1 02 Oct 05:52:23 05:56:44 71° 98° (E) 06:01:06
YUBILEINY 02 Oct 05:57:03 06:04:23 29° 302° (WNW) 06:11:44 435.215
HORYU 2 02 Oct 06:09:21 06:12:54 23° 93° (E) 06:16:27 437.375
BEESAT 3 02 Oct 06:15:57 06:17:53 13° 13° (NNE) 06:19:50 437.485
STRAND 1 02 Oct 06:30:58 06:34:39 20° 56° (NE) 06:38:20 437.568
BRITE-PL 02 Oct 06:34:14 06:38:13 26° 91° (E) 06:41:58 437.365/2234.400
O/OREOS (USA 219) 02 Oct 06:45:08 06:48:30 21° 102° (ESE) 06:51:54 437.305
CUBESAT XI-V 02 Oct 06:46:00 06:50:12 32° 265° (W) 06:54:26 437.345
ITAMSAT 1 02 Oct 06:46:44 06:50:20 19° 306° (NW) 06:53:56 435.822/435.867
CUSAT 1 02 Oct 06:49:00 06:56:42 71° 263° (W) 07:03:01 437.405
AO-85 02 Oct 06:51:01 06:53:06 14° 250° (WSW) 06:55:07 145.980
PCSat 02 Oct 06:51:16 06:56:03 30° 326° (NW) 07:00:52 145.827
AIST 2 02 Oct 07:07:51 07:10:19 15° 345° (NNW) 07:12:46 435.215
NOAA 15 02 Oct 07:08:42 07:13:11 27° 93° (E) 07:17:36 137.62
RS-15 02 Oct 07:17:04 07:26:41 28° 259° (W) 07:36:12 29.354- 29.394
BEESAT 2 02 Oct 07:21:30 07:24:11 17° 22° (NNE) 07:26:52 435.950
DANDE 02 Oct 07:23:02 07:31:31 85° 260° (W) 07:39:17 436.750
NOAA 18 02 Oct 07:23:23 07:27:47 24° 92° (E) 07:32:10 137.9125
AO-7 02 Oct 07:28:22 07:35:50 40° 308° (NW) 07:43:19 29.400- 29.500
AIST 1 02 Oct 07:32:07 07:34:52 16° 297° (WNW) 07:37:36
DOVE 4 02 Oct 07:33:40 07:36:33 18° 90° (E) 07:39:25 437.250
GOMX 1 02 Oct 07:36:27 07:40:37 41° 97° (E) 07:44:36 467.674
LilacSat-2 02 Oct 07:37:19 07:40:55 36° 97° (E) 07:44:31 437.200
Cosmos 2504 02 Oct 07:40:36 07:44:13 14° 312° (NW) 07:47:52 435.465 / 435.565
CUTE-I 02 Oct 07:40:43 07:45:47 41° 97° (E) 07:50:49 437.470
Cubesat XI-IV 02 Oct 07:42:10 07:47:15 41° 97° (E) 07:52:18 437.490
HORYU 2 02 Oct 07:45:24 07:49:42 49° 292° (WNW) 07:54:01 437.375
BEESAT 3 02 Oct 07:53:07 07:56:43 31° 36° (NE) 08:00:18 437.485
STRAND 1 02 Oct 08:08:10 08:13:16 78° 255° (WSW) 08:18:27 437.568
CINEMA 3 02 Oct 08:10:31 08:12:18 12° 87° (E) 08:14:07 145.822/145.860
BRITE-PL 02 Oct 08:12:24 08:16:58 44° 293° (WNW) 08:21:11 437.365/2234.400
GONETS M04 02 Oct 08:22:03 08:29:51 37° 83° (E) 08:37:41
O/OREOS (USA 219) 02 Oct 08:22:58 08:27:30 60° 302° (WNW) 08:32:06 437.305
SEEDS 02 Oct 08:32:00 08:33:07 11° 85° (E) 08:34:14 437.485
CUSAT 1 02 Oct 08:32:48 08:37:09 17° 286° (WNW) 08:41:06 437.405
PCSat 02 Oct 08:37:58 08:41:13 16° 351° (N) 08:44:28 145.827
CUTE 1.7 + AOD 2 02 Oct 08:38:17 08:41:14 18° 89° (E) 08:44:10 437.475
Cosmos 2499 02 Oct 08:38:19 08:44:29 34° 85° (E) 08:50:43 435.465 / 435.565
CANX-2 02 Oct 08:40:19 08:43:37 21° 91° (E) 08:46:53 2200.000
NOAA 15 02 Oct 08:48:05 08:53:17 55° 292° (WNW) 08:58:25 137.62
AIST 2 02 Oct 08:48:20 08:50:27 13° 9° (N) 08:52:34 435.215
BEESAT 2 02 Oct 08:58:52 09:02:50 55° 44° (NE) 09:06:47 435.950
NOAA 18 02 Oct 09:03:28 09:08:53 64° 292° (WNW) 09:14:18 137.9125
HO-68 02 Oct 09:05:38 09:12:15 39° 96° (E) 09:18:50 435.675
DANDE 02 Oct 09:06:56 09:13:12 24° 281° (WNW) 09:19:08 436.750
PRISM 02 Oct 09:09:31 09:13:33 49° 69° (ENE) 09:17:37 437.425
DOVE 4 02 Oct 09:10:34 09:14:40 53° 289° (WNW) 09:18:42 437.250
LilacSat-2 02 Oct 09:11:57 09:15:05 24° 296° (WNW) 09:18:13 437.200
GOMX 1 02 Oct 09:14:56 09:18:33 25° 298° (WNW) 09:22:01 467.674
CUTE-I 02 Oct 09:20:55 09:25:49 37° 297° (WNW) 09:30:43 437.470
AO-7 02 Oct 09:22:16 09:26:26 15° 333° (NNW) 09:30:36 29.400- 29.500
Cubesat XI-IV 02 Oct 09:22:24 09:27:17 37° 297° (WNW) 09:32:10 437.490
COMPASS 1 02 Oct 09:27:31 09:31:07 26° 94° (E) 09:34:40 437.405
BEESAT 3 02 Oct 09:30:41 09:34:32 47° 236° (SW) 09:38:21 437.485
UNISAT 6 02 Oct 09:32:33 09:35:07 16° 57° (ENE) 09:37:42 437.425
CINEMA 3 02 Oct 09:45:50 09:50:03 82° 285° (WNW) 09:54:21 145.822/145.860
STRAND 1 02 Oct 09:51:06 09:53:20 13° 275° (W) 09:55:35 437.568
FUNcube-1 02 Oct 10:00:28 10:03:44 20° 91° (E) 10:07:02 145.935
SEEDS 02 Oct 10:05:12 10:09:31 85° 107° (ESE) 10:13:47 437.485
O/OREOS (USA 219) 02 Oct 10:05:26 10:07:55 14° 324° (NW) 10:10:24 437.305
ANTELSAT 02 Oct 10:06:19 10:10:01 29° 64° (ENE) 10:13:43 437.575/2403.000
AAUSAT CUBESAT 2 02 Oct 10:13:11 10:17:21 58° 101° (E) 10:21:29 437.432
CUTE 1.7 + AOD 2 02 Oct 10:13:13 10:17:29 60° 288° (WNW) 10:21:42 437.475
CANX-2 02 Oct 10:15:34 10:19:46 50° 290° (WNW) 10:23:56 2200.000
GONETS M04 02 Oct 10:17:28 10:26:14 64° 286° (WNW) 10:35:04
CUBEBUG 2 02 Oct 10:19:26 10:23:45 67° 102° (ESE) 10:28:10 437.445
PCSat 02 Oct 10:23:08 10:26:48 18° 17° (NNE) 10:30:27 145.827
TIGRISAT 02 Oct 10:25:02 10:29:01 40° 68° (ENE) 10:33:02 435.000
AIST 2 02 Oct 10:26:34 10:30:14 28° 33° (NNE) 10:33:54 435.215
UWE-3 02 Oct 10:26:53 10:31:09 55° 100° (E) 10:35:31 435.000/436.395/437.385
NOAA 15 02 Oct 10:29:59 10:31:58 12° 313° (NW) 10:33:57 137.62
Cosmos 2499 02 Oct 10:30:23 10:37:17 55° 288° (WNW) 10:44:19 435.465 / 435.565
Oscar 11 02 Oct 10:33:16 10:37:24 40° 97° (E) 10:41:31 145.826/435.025
BEESAT 2 02 Oct 10:37:11 10:40:22 23° 243° (WSW) 10:43:33 435.950
QB50P2 02 Oct 10:40:29 10:42:21 13° 55° (NE) 10:44:14 145.880/145.840
JAS-2 02 Oct 10:41:26 10:46:51 24° 48° (NE) 10:52:34 435.910
POLYITAN 1 02 Oct 10:42:39 10:44:30 13° 55° (NE) 10:46:22 437.675
ZACube-1 02 Oct 10:44:46 10:49:03 54° 100° (E) 10:53:25 437.345
NOAA 18 02 Oct 10:45:46 10:48:35 14° 312° (NW) 10:51:25 137.9125
PRISM 02 Oct 10:45:58 10:49:07 20° 268° (W) 10:52:17 437.425
DELFI C3 02 Oct 10:50:23 10:53:46 25° 94° (E) 10:57:07 145.870
HO-68 02 Oct 10:53:18 11:00:14 55° 297° (WNW) 11:07:09 435.675
COMPASS 1 02 Oct 11:02:51 11:06:47 38° 292° (WNW) 11:10:41 437.405
UNISAT 6 02 Oct 11:07:03 11:11:19 77° 258° (WSW) 11:15:37 437.425
DUCHIFAT 1 02 Oct 11:11:44 11:14:45 20° 60° (ENE) 11:17:46 145.980
PHONESAT 2.4 02 Oct 11:18:49 11:19:10 10° 173° (S) 11:19:30 2401.200-2431.200
QB50P1 02 Oct 11:19:04 11:22:30 25° 63° (ENE) 11:25:58 145.935-145.965
CINEMA 3 02 Oct 11:24:51 11:26:34 12° 304° (NW) 11:28:16 145.822/145.860
POPSAT HIP 1 02 Oct 11:32:44 11:36:28 32° 66° (ENE) 11:40:13 437.405
FUNcube-1 02 Oct 11:36:02 11:40:16 54° 289° (WNW) 11:44:36 145.935
SEEDS 02 Oct 11:42:16 11:44:37 15° 303° (WNW) 11:46:59 437.485
ANTELSAT 02 Oct 11:42:45 11:46:40 35° 263° (W) 11:50:37 437.575/2403.000
NANOSAT C BR1 02 Oct 11:45:11 11:49:06 40° 68° (ENE) 11:53:02 145.865
AAUSAT CUBESAT 2 02 Oct 11:49:28 11:52:28 19° 300° (WNW) 11:55:26 437.432
HUMSAT D 02 Oct 11:56:20 12:00:34 63° 101° (ESE) 12:04:50 437.325/437.525
CUBEBUG 2 02 Oct 11:57:03 11:59:58 18° 300° (WNW) 12:02:57 437.445
TIGRISAT 02 Oct 12:02:22 12:05:53 25° 267° (W) 12:09:26 435.000
UWE-3 02 Oct 12:04:02 12:07:19 21° 298° (WNW) 12:10:40 435.000/436.395/437.385
AIST 2 02 Oct 12:04:52 12:09:02 63° 234° (SW) 12:13:12 435.215
YUBILEINY 02 Oct 12:05:36 12:10:48 17° 45° (NE) 12:15:59 435.215
PCSat 02 Oct 12:06:27 12:11:38 43° 42° (NE) 12:16:47 145.827
Oscar 11 02 Oct 12:09:42 12:13:24 28° 296° (WNW) 12:17:06 145.826/435.025
Oscar 19 02 Oct 12:10:01 12:12:21 13° 49° (NE) 12:14:41 437.125/150
QB50P2 02 Oct 12:13:17 12:17:30 84° 74° (ENE) 12:21:43 145.880/145.840
POLYITAN 1 02 Oct 12:15:27 12:19:39 84° 74° (ENE) 12:23:52 437.675
GONETS M04 02 Oct 12:19:17 12:25:13 19° 312° (NW) 12:31:10
ZACube-1 02 Oct 12:21:44 12:25:03 22° 299° (WNW) 12:28:25 437.345
ESTCUBE 1 02 Oct 12:23:36 12:27:15 23° 92° (E) 12:30:52 437.505/2401.250
JAS-2 02 Oct 12:23:46 12:30:42 78° 71° (ENE) 12:38:25 435.910
DELFI C3 02 Oct 12:24:59 12:28:42 36° 292° (WNW) 12:32:22 145.870
BUGSAT 1 02 Oct 12:27:12 12:31:03 43° 69° (ENE) 12:34:54 437.445
Cosmos 2499 02 Oct 12:29:07 12:32:25 13° 314° (NW) 12:35:45 435.465 / 435.565
HO-68 02 Oct 12:42:22 12:46:32 17° 319° (NW) 12:50:42 435.675
DUCHIFAT 1 02 Oct 12:45:59 12:50:05 56° 259° (W) 12:54:13 145.980
AISAT 02 Oct 12:54:07 12:57:41 23° 93° (E) 13:01:12 437.250
QB50P1 02 Oct 12:54:08 12:58:07 41° 262° (W) 13:02:07 145.935-145.965
AO-7 02 Oct 13:00:44 13:05:01 15° 28° (NNE) 13:09:17 29.400- 29.500
POPSAT HIP 1 02 Oct 13:08:31 13:12:15 31° 264° (W) 13:16:01 437.405
DX 1 02 Oct 13:11:38 13:14:58 21° 92° (E) 13:18:18 434.975-435.025
NANOSAT C BR1 02 Oct 13:21:31 13:24:59 25° 266° (W) 13:28:28 145.865
AUBIESAT-1 02 Oct 13:23:40 13:23:56 10° 95° (E) 13:24:13 437.475
CUBEBUG 1 02 Oct 13:27:22 13:31:40 58° 101° (E) 13:35:55 437.445
HUMSAT D 02 Oct 13:32:49 13:35:47 19° 300° (WNW) 13:38:47 437.325/437.525
Cosmos 2504 02 Oct 13:34:13 13:39:11 19° 53° (NE) 13:44:20 435.465 / 435.565
VELOX 1 02 Oct 13:36:46 13:41:07 55° 101° (E) 13:45:25 145.980
SPROUT 02 Oct 13:43:35 13:47:36 39° 98° (E) 13:51:36 437.525
Oscar 19 02 Oct 13:45:36 13:50:43 62° 69° (ENE) 13:55:51 437.125/150
Gurwin Techsat 1B 02 Oct 13:46:11 13:50:58 35° 63° (ENE) 13:55:47 435.225
PCSat 02 Oct 13:49:56 13:55:07 45° 243° (WSW) 14:00:15 145.827
QB50P2 02 Oct 13:52:07 13:53:54 12° 273° (W) 13:55:41 145.880/145.840
POLYITAN 1 02 Oct 13:54:18 13:56:03 12° 273° (W) 13:57:49 437.675
50 SAT 02 Oct 13:55:03 13:58:45 89° 105° (ESE) 14:02:25 437.505
